Hourly Weather Roundup
Issued by NWS

Current Version | Previous Version | Text Only | Print | Product List | Glossary On
Versions: 1 2 3 4 5 6 7 8 9 10 11 12 13 14 15 16 17 18 19 20 21 22 23 24 25 26 27 28 29 30 31 32 33 34 35 36 37 38 39 40 41 42 43 44 45 46 47 48 49 50
000
NZUS43 KILX 262110
HWRCRS

NWR Hourly Weather Roundup
National Weather Service Lincoln IL
400 PM CDT SAT MAY 26 2018


CITY           SKY/WX    TMP DP  RH WIND       PRES   REMARKS
Champaign      FAIR      87  65  47 W9        29.79F HX  89
Lawrenceville  PTSUNNY   88  62  41 S10       29.79F HX  88
Peoria         FAIR      89  65  44 W14       29.77F HX  91
Springfield    FAIR      91  63  39 VRB5      29.78F HX  92
$$


CITY           SKY/WX    TMP DP  RH WIND       PRES   REMARKS
Bloomington    FAIR      88  62  41 VRB6      29.80F HX  88
Danville       FAIR      88  65  46 W9        29.76S HX  90
Decatur        FAIR      90  63  40 VRB3      29.78F HX  91
Effingham      FAIR      89  64  44 S7        29.81S HX  90
Flora          FAIR      91  69  48 SW10      29.80F HX  95
Galesburg      FAIR      89  70  52 SW8       29.77F HX  95
Jacksonville   SUNNY     88  70  56 SW10      29.78F HX  93
Lacon          FAIR      87  66  48 S8        29.75F HX  89
La Salle       FAIR      91  66  43 W9        29.77F HX  93
Lincoln        FAIR      90  67  47 CALM      29.78S HX  93
Litchfield     SUNNY     87  68  52 S8        29.80F HX  91

CITY           SKY/WX    TMP DP  RH WIND       PRES   REMARKS
Macomb         CLOUDY    88  72  58 S9        29.78F HX  94
Mattoon        FAIR      86  68  54 VRB6      29.78F HX  89
Moline         FAIR      92  69  47 VRB5      29.74F HX  97
Olney          FAIR      89  63  41 W6        29.80S HX  89
Paris          PTSUNNY   90  67  45 W12       29.79S HX  93
Pontiac        FAIR      89  64  42 W8        29.78S HX  90
Quincy         PTSUNNY   90  66  45 SW8       29.76F HX  92
Rantoul        FAIR      87  69  55 W7        29.79S HX  91
Robinson       PTSUNNY   90  67  45 W12       29.79F HX  93
Taylorville    FAIR      87  67  52 SW8       29.79F HX  90
Terre Haute    FAIR      89  64  43 W10       29.78F HX  90
$$


CITY           SKY/WX    TMP DP  RH WIND       PRES   REMARKS
Burlington     SUNNY     92  68  45 CALM      29.74F HX  96
Chicago        FAIR      89  59  36 W8        29.74F HX  88
Des Moines     MOSUNNY   95  63  34 VRB5      29.72F HX  96
Evansville     FAIR      88  68  51 SW12      29.81F HX  91
Indianapolis   PTSUNNY   87  63  44 W14       29.78F HX  88
Kansas City    MOSUNNY   92  67  43 SW14G22   29.77F HX  95
Milwaukee      FAIR      83  63  50 SE13      29.74F HX  84
St Louis       MOSUNNY   91  68  46 SW5       29.79F HX  95
$$





USA.gov is the U.S. government's official web portal to all federal, state and local government web resources and services.